Location: Alsip
(41.6689°N, 87.7387°W)
Time: 14:28:30
(UTC+00:00)

Okean 3 - Pass Details

Date: 14 July 2020
Orbit: 576 x 601 km, 82.5° (Epoch: 04 August)

Event Time Altitude Azimuth Distance (km) Brightness Sun altitude
Rises 08:17:44 0° 345° (NNW) 2,802 7.5 -18.8°
Reaches altitude 10° 08:19:59 10° 339° (NNW) 1,901 6.5 -18.6°
Maximum altitude 08:23:58 44° 267° (W) 810 3.8 -18.2°
Enters shadow 08:24:46 39° 235° (SW) 880 3.8 -18.1°
